Regional Weather Roundup
Issued by NWS Bismarck, ND

Home | Current Version | Previous Version | Text Only | Print | Product List | Glossary On
Versions: 1 2 3 4 5 6 7 8 9 10 11 12 13 14 15 16 17 18 19 20 21 22 23 24 25 26 27 28 29 30 31 32 33 34 35 36 37 38 39 40 41 42 43 44 45 46 47 48 49 50
222
ASUS43 KBIS 041202
RWRBIS

NWR BROADCAST TEXT
NATIONAL WEATHER SERVICE BISMARCK ND
600 AM CST SUN DEC 04 2016

NOTE: "FAIR" INDICATES FEW OR NO CLOUDS BELOW 12,000 FEET WITH NO
SIGNIFICANT WEATHER AND/OR OBSTRUCTIONS TO VISIBILITY.


CITY           SKY/WX    TMP DP  RH WIND       PRES   REMARKS
WILLISTON      CLEAR     24  21  88 SW7       29.76S WCI  16
MINOT          CLOUDY    28  25  88 W18       29.70F WCI  15
MINOT AFB      CLOUDY    26  23  90 NW18      29.69F WCI  12
BISMARCK       CLOUDY    33  29  85 W14       29.76S
DICKINSON      CLEAR     23  18  81 W15       29.76S WCI  10
GARRISON         N/A     30  27  88 NW13      29.72S WCI  20
HETTINGER ARPT CLEAR     21  16  81 W10       29.81F WCI  10
JAMESTOWN      CLOUDY    31  29  92 SW3       29.71S
CARRINGTON     CLOUDY    32  30  93 W12       29.71F
HAZEN          CLOUDY    32  28  86 W13G20    29.77S
RUGBY            N/A     25  25 100 W16       29.68F WCI  12
STANLEY        FLURRIES  28  28 100 NW17      29.73S WCI  16
TIOGA          CLOUDY    30  30 100 NW15G23   29.73F WCI  19
WATFORD CITY   FAIR      25  23  93 SW10      29.76F WCI  15
$$

CITY           SKY/WX    TMP DP  RH WIND       PRES   REMARKS
GRAND FORKS    NOT AVBL
GRAND FORKS AF LGT RAIN  33  32  98 S12       29.72S
DEVILS LAKE    CLOUDY    32  30  92 SW9       29.67F
FARGO          LGT SNOW  34  32  92 S14       29.76F FOG
CANDO          CLOUDY    28  28 100 W16       29.69R WCI  17
CAVALIER       MIX PCPN  32  32 100 S10       29.69F
GRAFTON        LGT SNOW  32  32 100 S13       29.73F
GWINNER          N/A     32  32 100 SW13      29.76F
LANGDON        CLOUDY    32  32 100 S12       29.65F FOG
$$

CITY           SKY/WX    TMP DP  RH WIND       PRES   REMARKS
ABERDEEN       CLOUDY    31  28  89 SW6       29.80S
MOBRIDGE       CLEAR     27  22  81 W7        29.79S WCI  19
BUFFALO          N/A     26  20  77 W13       29.76S WCI  15
RAPID CITY     CLEAR     25  18  74 NW10      29.89S WCI  15
GLASGOW        CLEAR     21  18  88 S10       29.77F WCI  10
SIDNEY         CLEAR     21  18  88 SW6       29.78F WCI  13
WOLF POINT     CLEAR     23  20  88 SW8       29.79F WCI  14
GLENDIVE       CLEAR     22  17  81 W12       29.80F WCI  10
MILES CITY     CLOUDY    32  18  56 W6        29.83F
BAKER          CLEAR     21  15  78 CALM      29.83F
$$

CITY           SKY/WX    TMP DP  RH WIND       PRES   REMARKS
BILLINGS       PTCLDY    32  14  47 SW10      29.83F
GREAT FALLS    CLOUDY    32  20  61 SW20      29.75F
ESTEVAN        CLOUDY    27  25  93 NW15      29.71  WCI  15
$$





USA.gov is the U.S. government's official web portal to all federal, state and local government web resources and services.